Location: Little Cypress
(30.1590°N, 93.7750°W)
Time: 03:23:09
(UTC-05:00)

Daily predictions for brighter satellites

Satellite Brightness Start Highest point End
(mag) Time Altitude Azimuth Time Altitude Azimuth Time Altitude Azimuth
Okean O Rocket 2.9 04:43:34 10° NNE 04:47:34 36° E 04:47:42 36° ESE
ATLAS 3B R/B 3.1 04:51:33 39° S 04:54:27 68° ESE 05:01:39 10° NE
Delta 2 Rocket 3.9 04:59:20 83° ESE 04:59:20 83° ESE 05:04:55 10° ENE
Cosmos 1975 4.0 04:55:31 10° N 04:59:25 43° E 05:00:54 30° SE
ADEOS II 2.3 04:54:23 10° N 04:58:42 59° N 04:58:42 59° N
Cosmos 2266 Rocket 4.0 04:53:19 10° N 04:59:46 87° E 05:06:09 10° S
Meteor 1-18 Rocket 4.3 05:05:26 63° WNW 05:05:26 63° WNW 05:10:57 10° N
Cosmos 1844 Rocket 4.0 05:07:10 10° S 05:12:21 39° ESE 05:17:35 10° NE
ATLAS CENTAUR R/B 4.3 05:13:23 10° SE 05:15:00 12° ESE 05:16:36 10° E
Cosmos 1943 3.0 05:13:12 10° NNW 05:18:53 73° WSW 05:24:29 10° S
Cosmos 2263 Rocket 3.3 05:21:57 28° NW 05:21:57 28° NW 05:25:49 10° N
Cosmos 1743 3.9 05:18:19 10° N 05:22:04 44° E 05:25:47 10° SSE
ASTRO E2 3.2 05:23:57 47° SSE 05:24:02 47° SSE 05:27:54 10° E
Atlas Centaur 2 2.0 05:22:30 49° W 05:24:13 87° N 05:29:19 10° E
PSLV R/B 4.0 05:22:12 10° N 05:25:27 45° NW 05:25:27 45° NW
OAO 1 Rocket 4.4 05:25:30 53° WSW 05:26:49 88° SSE 05:32:12 10° ENE
CZ-4B R/B 4.0 05:24:21 10° N 05:26:42 30° NNW 05:26:42 30° NNW
PAYLOAD B 4.1 05:25:35 10° N 05:31:04 74° WNW 05:35:23 17° SSW
Cosmos 1544 Rocket 3.5 05:27:48 10° N 05:32:09 85° E 05:36:30 10° S
SEDSat Delta rocket 4.2 05:33:15 37° WSW 05:34:34 42° SSW 05:39:46 10° SE
GPS 2-14 Rocket1 4.4 05:37:21 19° S 05:37:23 19° S 05:40:12 10° SE
Skynet4D Del rocket 3.8 05:36:20 35° WSW 05:38:41 61° S 05:44:05 10° E
Meteor PRIRODA 3.6 05:35:08 10° NNE 05:38:50 86° E 05:41:31 18° S
Cosmos 1455 Rocket 2.9 05:35:33 10° N 05:39:52 88° W 05:44:11 10° S
NOSS 3-2 (A) 3.9 05:36:03 10° SSW 05:41:44 59° ESE 05:47:52 10° NE
Meteor 1-4 Rocket 3.0 05:39:12 10° N 05:42:37 58° E 05:46:02 10° SSE
Meteor 1-13 Rocket 4.2 05:37:51 10° SSW 05:43:47 75° W 05:49:44 10° N
Cosmos 1486 Rocket 4.1 05:40:03 10° S 05:45:18 77° ESE 05:50:32 10° NNE
CZ-4B R/B 3.9 05:42:26 10° NNE 05:46:25 84° E 05:50:35 10° S
ASC 2 Rocket 3.8 05:45:42 29° SW 05:46:47 34° S 05:50:29 10° ESE
Meteor 1-12 Rocket 4.4 05:41:01 10° NNW 05:46:54 58° W 05:52:45 10° S
Cosmos 468 Rocket 4.2 05:41:44 10° NNW 05:47:03 73° ENE 05:52:19 10° SSE
Okean-O 3.8 05:46:47 10° NNE 05:51:01 44° E 05:55:14 10° S
Cosmos 1536 Rocket 3.6 05:49:27 13° SSW 05:53:05 52° W 05:57:19 10° N
Cosmos 1844 3.8 05:50:59 10° SSW 05:56:31 76° ESE 06:02:09 10° NNE
Cosmos 1417 Rocket 4.5 05:50:51 10° SSW 05:57:09 67° W 06:03:29 10° N
Intercosmos 25 Rocket 4.4 05:56:00 25° WSW 05:57:13 29° W 06:00:28 10° NNW
Meteor 2-4 Rocket 3.6 05:58:35 10° SSW 06:04:02 67° W 06:09:41 10° N
CZ-4B R/B 3.6 05:59:37 10° N 06:04:30 39° WNW 06:09:25 10° SW
GPS 2-05 Rocket1 2.5 06:03:42 30° W 06:05:01 62° SSW 06:08:03 10° ESE
CZ-3 R/B 2.6 05:49:53 19° WSW 06:05:15 75° S 06:10:52 10° E
Cosmos 1763 Rocket 4.2 06:00:47 10° N 06:06:01 60° ENE 06:11:15 10° SSE
USA 238 DEB 4.1 06:01:21 16° WSW 06:06:34 45° NW 06:13:13 10° NNE
USA 238 4.1 06:01:24 16° WSW 06:06:41 45° NW 06:13:21 10° NNE
GOES 2 Rocket 3.4 06:06:07 21° WSW 06:08:33 47° SSW 06:12:53 10° ESE
Cosmos 1553 Rocket 4.0 06:04:29 10° SSW 06:10:33 61° W 06:16:35 10° N
Cosmos 1745 Rocket 4.3 06:04:49 10° N 06:11:12 75° E 06:17:28 10° S
Cosmos 332 Rocket 4.2 06:11:21 10° NW 06:15:45 37° W 06:20:07 10° SSW
Okean 1-7 Rocket 4.0 06:11:23 10° S 06:15:50 71° E 06:20:21 10° N
Cosmos 371 Rocket 3.7 06:15:56 10° NNW 06:20:28 40° WSW 06:24:59 10° S
CZ-3C R/B 4.5 06:18:59 10° S 06:20:45 11° SSE 06:23:07 10° SSE
NOAA 6 4.0 06:16:13 10° NNE 06:21:27 86° W 06:26:37 10° SSW
CZ-2C R/B 3.8 06:18:08 10° S 06:22:42 56° W 06:27:22 10° NNW
Cosmos 1025 Rocket 2.9 06:19:17 10° S 06:23:32 80° W 06:27:48 10° N
Okean O Rocket 3.3 06:21:15 10° NW 06:23:35 14° WNW 06:25:09 12° W
USA 116 3.2 06:20:23 10° S 06:23:43 62° WSW 06:26:51 10° NNW
SL-08 R/B 4.5 06:21:26 10° NNW 06:27:27 62° W 06:33:29 10° S
Meteor 2-9 Rocket 4.2 06:23:29 10° NNW 06:28:53 63° W 06:34:24 10° S
S3M 4.3 06:24:31 10° SSW 06:30:25 45° W 06:36:26 10° N
EO 1 Del DPAF 3.2 06:28:42 10° S 06:32:29 65° WSW 06:36:17 10° NNW
Okean 2 3.3 06:30:07 10° SSW 06:34:09 63° W 06:38:12 10° N
COSMOS 2406 3.5 06:31:56 10° NNW 06:37:42 78° ENE 06:43:27 10° SSE
Cosmos 2278 Rocket 2.3 06:32:38 10° SSW 06:38:17 84° ESE 06:43:58 10° NNE
Cosmos 389 Rocket 3.0 06:35:15 10° N 06:38:41 64° E 06:42:09 10° SSE
COSMO-SKYMED 1 2.6 06:37:11 10° SSE 06:41:31 89° NE 06:45:52 10° NNW
Cosmos 1515 3.9 06:39:32 10° SSW 06:43:12 48° W 06:46:54 10° N
NOSS 3-2 (C) 3.5 06:37:39 10° SW 06:43:23 60° WNW 06:49:39 10° NNE
Tiangong 1 1.4 06:41:47 10° NW 06:44:23 50° NNE 06:47:00 10° ESE
ATLAS 3B R/B 4.0 06:40:05 10° W 06:45:38 22° NW 06:51:04 10° N
